Temp
-20 -20 -19 -19 -19 -19 -19 -19 -19 -19 -19 -19 -18 -17 -17 -16 -16 -16 -16 -17 -17 -17 -17 -16 -16 -16 -15 -16 -16 -16 -15 -15 -15 -16 -16 -16 -16 -16 -17 -17 -18 -18 -19
-20 -20 -20 -20 -20 -20 -20 -20 -20 -20 -19 -18 -18 -17 -16 -17 -16 -16 -17 -18 -16 -17 -17 -16 -16 -16 -15 -16 -15 -16 -16 -16 -16 -16 -17 -17 -19 -19 -19 -19 -18 -18 -19
-21 -21 -21 -21 -21 -20 -20 -20 -20 -19 -19 -18 -18 -17 -17 -17 -16 -17 -18 -16 -17 -16 -16 -17 -16 -16 -16 -16 -16 -16 -16 -16 -17 -19 -19 -19 -18 -18 -19 -19 -19 -19 -19
-21 -21 -21 -21 -21 -21 -21 -20 -20 -20 -20 -19 -18 -18 -17 -17 -17 -17 -18 -17 -17 -17 -16 -16 -17 -16 -16 -16 -16 -18 -19 -19 -19 -19 -18 -18 -18 -19 -19 -19 -19 -19 -19
-21 -21 -21 -21 -21 -21 -21 -20 -19 -19 -19 -18 -18 -17 -18 -17 -17 -17 -17 -17 -17 -17 -17 -17 -17 -17 -16 -18 -20 -19 -19 -18 -19 -18 -19 -19 -19 -19 -19 -19 -19 -19 -20
-21 -21 -21 -21 -20 -20 -20 -19 -19 -19 -18 -18 -18 -18 -18 -18 -18 -18 -18 -17 -17 -18 -17 -17 -18 -19 -19 -19 -19 -19 -18 -19 -19 -19 -19 -19 -19 -19 -19 -20 -20 -20 -20
-20 -20 -19 -20 -20 -20 -20 -19 -19 -19 -18 -18 -18 -18 -18 -18 -18 -18 -17 -18 -18 -18 -19 -19 -19 -19 -19 -19 -19 -19 -19 -19 -19 -19 -19 -19 -19 -20 -20 -20 -20 -20 -20
-20 -20 -20 -20 -20 -19 -19 -18 -19 -19 -19 -18 -18 -18 -18 -18 -18 -19 -19 -19 -19 -19 -19 -19 -19 -19 -19 -19 -19 -19 -19 -19 -19 -19 -19 -20 -20 -20 -20 -20 -20 -21 -21
-20 -20 -20 -20 -20 -19 -19 -19 -19 -19 -19 -19 -19 -19 -19 -20 -20 -19 -19 -19 -19 -19 -19 -19 -19 -19 -19 -19 -19 -19 -19 -19 -20 -20 -20 -20 -20 -20 -21 -21 -21 -22 -22
-20 -20 -20 -21 -21 -21 -21 -21 -20 -20 -20 -20 -20 -20 -20 -19 -19 -19 -19 -19 -19 -19 -19 -19 -19 -19 -19 -19 -19 -19 -20 -20 -20 -20 -20 -21 -21 -21 -22 -22 -22 -23 -23
-20 -20 -20 -20 -20 -20 -20 -20 -20 -20 -20 -20 -20 -20 -20 -19 -19 -19 -19 -19 -19 -19 -19 -19 -20 -20 -20 -20 -20 -20 -20 -20 -21 -21 -21 -21 -21 -22 -23 -23 -24 -24 -24
-20 -20 -20 -20 -20 -20 -20 -20 -19 -19 -19 -19 -19 -19 -19 -19 -19 -19 -19 -19 -19 -19 -19 -19 -20 -20 -20 -20 -20 -20 -20 -20 -21 -21 -21 -22 -22 -23 -24 -24 -24 -24 -24
-19 -19 -19 -19 -19 -19 -19 -19 -19 -19 -19 -19 -19 -19 -19 -19 -19 -19 -19 -19 -19 -20 -20 -20 -20 -20 -20 -20 -20 -20 -21 -21 -21 -22 -22 -23 -23 -24 -25 -25 -25 -24 -25
-19 -19 -19 -19 -19 -19 -19 -19 -19 -19 -19 -19 -19 -19 -19 -19 -19 -19 -19 -19 -20 -20 -20 -20 -20 -20 -21 -21 -21 -22 -22 -22 -22 -22 -23 -23 -24 -25 -25 -25 -25 -25 -25
-19 -19 -19 -19 -19 -19 -19 -19 -19 -19 -19 -19 -19 -20 -20 -20 -19 -19 -19 -20 -20 -20 -20 -21 -21 -22 -22 -22 -22 -22 -22 -22 -22 -23 -24 -24 -25 -25 -25 -25 -25 -25 -26
-19 -19 -19 -19 -19 -19 -19 -19 -19 -19 -19 -20 -20 -20 -20 -20 -20 -20 -20 -20 -20 -21 -21 -21 -22 -22 -22 -22 -22 -23 -23 -23 -23 -24 -24 -25 -25 -25 -26 -26 -26 -26 -27
-19 -19 -20 -20 -20 -20 -20 -20 -20 -20 -20 -20 -20 -20 -20 -20 -20 -20 -20 -20 -21 -21 -22 -22 -22 -22 -22 -22 -23 -23 -24 -24 -24 -24 -25 -25 -26 -26 -26 -27 -27 -28 -28
-19 -19 -20 -20 -20 -20 -20 -20 -20 -20 -20 -20 -20 -20 -20 -20 -20 -21 -21 -21 -21 -22 -22 -22 -23 -23 -23 -23 -24 -24 -24 -24 -25 -25 -26 -26 -26 -26 -27 -27 -28 -28 -28
-19 -19 -20 -20 -20 -20 -20 -20 -20 -21 -21 -21 -21 -20 -21 -21 -21 -21 -21 -22 -22 -23 -23 -23 -23 -23 -24 -24 -24 -24 -25 -25 -25 -26 -26 -26 -27 -27 -28 -28 -28 -28 -28
-20 -20 -20 -20 -20 -21 -21 -21 -21 -21 -21 -21 -21 -21 -21 -21 -21 -21 -22 -22 -23 -23 -23 -23 -24 -24 -24 -24 -24 -25 -25 -25 -26 -26 -27 -27 -27 -28 -28 -28 -28 -28 -28
-20 -21 -20 -21 -21 -21 -21 -21 -21 -21 -21 -21 -21 -21 -21 -21 -22 -22 -23 -23 -23 -23 -24 -24 -24 -24 -25 -25 -25 -25 -25 -26 -26 -27 -27 -27 -28 -28 -29 -29 -28 -29 -28
-21 -20 -20 -20 -20 -21 -21 -21 -21 -21 -21 -21 -21 -21 -21 -22 -22 -23 -23 -23 -24 -24 -24 -24 -25 -25 -25 -25 -25 -25 -26 -26 -27 -27 -27 -28 -28 -29 -29 -29 -29 -29 -29
-21 -21 -21 -21 -20 -20 -21 -21 -21 -21 -21 -21 -22 -22 -22 -23 -23 -23 -23 -24 -24 -24 -24 -25 -25 -25 -25 -25 -26 -26 -26 -27 -27 -27 -28 -28 -29 -29 -29 -29 -29 -29 -29
-21 -21 -21 -20 -20 -21 -21 -21 -21 -22 -22 -22 -22 -22 -23 -23 -23 -23 -24 -24 -24 -25 -25 -25 -25 -25 -25 -26 -26 -27 -27 -27 -28 -28 -28 -29 -29 -30 -29 -29 -29 -30 -29
-20 -20 -20 -20 -21 -21 -21 -21 -22 -22 -22 -22 -22 -23 -23 -23 -24 -24 -24 -24 -24 -25 -25 -25 -26 -26 -26 -26 -27 -27 -28 -28 -28 -29 -29 -29 -29 -29 -29 -29 -30 -30 -30
-20 -20 -20 -20 -21 -21 -21 -22 -22 -22 -23 -23 -23 -23 -24 -24 -24 -24 -24 -25 -25 -25 -25 -26 -26 -26 -26 -27 -27 -28 -28 -29 -29 -29 -29 -29 -29 -29 -29 -29 -29 -29 -30
Height
5496 5505 5512 5520 5526 5533 5539 5545 5552 5559 5566 5574 5583 5591 5597 5601 5602 5604 5609 5612 5619 5623 5628 5630 5633 5634 5635 5635 5636 5634 5635 5633 5631 5629 5627 5623 5621 5617 5613 5610 5608 5605 5602
5500 5506 5512 5518 5524 5530 5536 5542 5548 5554 5561 5568 5575 5583 5589 5592 5595 5600 5598 5607 5609 5617 5620 5623 5624 5626 5625 5625 5625 5623 5621 5620 5619 5616 5612 5609 5607 5605 5603 5601 5599 5595 5590
5504 5509 5514 5518 5524 5529 5535 5541 5546 5551 5556 5563 5570 5577 5582 5589 5592 5594 5598 5598 5604 5605 5609 5612 5615 5616 5615 5614 5613 5612 5609 5607 5604 5602 5601 5600 5597 5594 5592 5587 5583 5580 5575
5512 5516 5520 5524 5527 5532 5536 5540 5545 5552 5556 5562 5569 5575 5578 5583 5586 5590 5593 5596 5599 5599 5599 5600 5603 5602 5600 5597 5599 5598 5597 5598 5596 5594 5591 5588 5585 5582 5579 5573 5567 5565 5559
5517 5520 5522 5526 5529 5534 5538 5542 5549 5554 5559 5563 5567 5570 5574 5579 5581 5584 5589 5591 5592 5595 5597 5594 5593 5594 5596 5591 5591 5593 5590 5589 5586 5583 5579 5577 5573 5570 5564 5558 5552 5547 5539
5520 5522 5524 5528 5533 5539 5543 5546 5549 5554 5558 5562 5565 5567 5570 5574 5578 5581 5583 5587 5588 5589 5588 5587 5587 5588 5588 5587 5586 5585 5581 5579 5576 5573 5568 5562 5559 5554 5547 5540 5533 5525 5519
5525 5524 5527 5533 5537 5540 5544 5547 5551 5555 5559 5562 5566 5568 5571 5574 5576 5578 5579 5580 5582 5582 5582 5582 5581 5580 5580 5579 5577 5574 5569 5566 5564 5559 5553 5547 5540 5533 5527 5519 5511 5505 5495
5529 5529 5534 5539 5541 5544 5547 5551 5555 5558 5560 5564 5567 5569 5570 5572 5573 5574 5576 5576 5577 5576 5576 5576 5576 5575 5573 5572 5568 5564 5559 5555 5549 5543 5536 5529 5522 5514 5508 5500 5491 5485 5475
5537 5539 5542 5544 5547 5550 5552 5555 5558 5560 5562 5564 5566 5567 5569 5570 5572 5573 5574 5573 5574 5573 5571 5570 5568 5565 5562 5559 5554 5548 5544 5538 5532 5525 5518 5511 5503 5495 5486 5478 5467 5460 5453
5549 5550 5550 5552 5553 5555 5557 5559 5562 5564 5565 5567 5568 5569 5570 5571 5571 5570 5570 5569 5567 5566 5565 5564 5561 5557 5553 5547 5541 5536 5531 5525 5518 5509 5501 5492 5482 5472 5462 5452 5443 5436 5426
5556 5556 5557 5558 5559 5560 5562 5562 5564 5565 5566 5567 5568 5569 5569 5569 5566 5566 5563 5562 5561 5558 5555 5553 5549 5544 5539 5534 5529 5523 5517 5509 5501 5492 5482 5473 5463 5452 5442 5431 5421 5411 5400
5562 5562 5563 5563 5563 5564 5564 5565 5566 5567 5566 5566 5565 5564 5563 5562 5561 5559 5557 5555 5551 5548 5545 5540 5536 5531 5526 5520 5514 5507 5500 5493 5484 5475 5465 5454 5443 5432 5421 5411 5398 5387 5374
5564 5564 5565 5566 5566 5566 5566 5567 5567 5567 5566 5565 5563 5562 5560 5558 5556 5554 5551 5548 5544 5540 5536 5531 5525 5519 5512 5505 5497 5490 5482 5474 5465 5455 5445 5434 5424 5414 5403 5393 5380 5367 5356
5568 5567 5566 5566 5566 5565 5565 5564 5564 5562 5561 5560 5558 5556 5554 5552 5549 5546 5542 5538 5533 5528 5523 5517 5510 5502 5495 5487 5479 5471 5463 5455 5446 5437 5428 5417 5407 5397 5385 5373 5362 5348 5337
5568 5567 5566 5565 5564 5563 5562 5561 5560 5558 5557 5555 5553 5550 5547 5544 5541 5536 5532 5528 5523 5517 5510 5503 5496 5488 5480 5471 5463 5455 5446 5438 5429 5420 5410 5401 5390 5379 5366 5351 5338 5325 5312
5568 5566 5564 5563 5561 5560 5558 5556 5554 5552 5551 5549 5547 5543 5540 5536 5532 5528 5523 5518 5511 5504 5498 5491 5483 5475 5467 5459 5451 5441 5430 5421 5411 5402 5392 5382 5371 5360 5348 5332 5317 5303 5292
5567 5565 5563 5561 5559 5557 5554 5552 5550 5547 5545 5542 5539 5535 5531 5528 5523 5518 5512 5506 5499 5493 5486 5477 5468 5460 5452 5444 5435 5425 5414 5404 5394 5384 5374 5363 5352 5342 5328 5314 5299 5285 5275
5563 5561 5559 5556 5554 5552 5549 5547 5544 5541 5538 5534 5531 5527 5523 5518 5512 5507 5500 5493 5485 5478 5471 5462 5454 5445 5437 5428 5418 5409 5399 5388 5378 5368 5357 5346 5334 5323 5309 5294 5280 5267 5260
5559 5556 5553 5551 5548 5545 5542 5539 5537 5534 5530 5526 5522 5517 5513 5507 5500 5494 5487 5479 5471 5463 5456 5449 5440 5430 5421 5412 5402 5393 5383 5374 5363 5352 5341 5329 5317 5304 5291 5275 5263 5254 5246
5555 5552 5549 5546 5542 5539 5535 5532 5529 5524 5520 5515 5511 5506 5501 5495 5487 5481 5474 5467 5459 5451 5442 5433 5424 5414 5406 5397 5388 5379 5369 5358 5348 5337 5326 5314 5301 5287 5272 5259 5249 5242 5233
5548 5544 5541 5537 5534 5530 5526 5522 5518 5514 5509 5504 5499 5494 5488 5483 5475 5468 5460 5453 5445 5437 5427 5417 5408 5400 5390 5382 5373 5364 5354 5343 5332 5321 5310 5298 5284 5270 5254 5244 5236 5227 5217
5538 5534 5530 5526 5523 5519 5515 5511 5506 5501 5497 5493 5487 5480 5474 5470 5463 5455 5447 5439 5430 5421 5411 5401 5393 5385 5376 5367 5358 5348 5338 5327 5316 5305 5294 5282 5268 5252 5239 5231 5223 5212 5201
5527 5523 5518 5514 5511 5507 5502 5497 5493 5489 5484 5479 5474 5468 5461 5454 5448 5442 5435 5427 5417 5407 5397 5388 5380 5371 5361 5353 5342 5332 5322 5311 5300 5288 5278 5265 5251 5236 5225 5217 5207 5196 5185
5515 5510 5505 5502 5498 5493 5488 5484 5480 5476 5471 5466 5460 5454 5447 5441 5434 5427 5419 5411 5402 5393 5384 5374 5366 5357 5348 5338 5327 5317 5306 5295 5283 5271 5259 5248 5234 5222 5212 5204 5192 5179 5168
5503 5497 5492 5487 5483 5479 5475 5471 5468 5463 5459 5453 5447 5440 5433 5427 5420 5412 5403 5395 5387 5379 5370 5360 5351 5342 5333 5323 5312 5301 5290 5278 5267 5255 5242 5229 5216 5206 5197 5187 5178 5167 5153
5491 5485 5480 5474 5470 5466 5462 5458 5455 5450 5445 5439 5433 5427 5420 5413 5406 5397 5389 5381 5373 5364 5355 5346 5337 5328 5318 5308 5297 5286 5275 5263 5252 5238 5226 5214 5205 5196 5185 5172 5160 5149 5138
Wind_Speed
25 25 25 25 26 27 29 29 31 32 33 32 32 33 34 30 31 37 29 41 36 33 32 32 31 30 30 27 33 31 43 50 51 47 51 54 56 56 56 53 50 50 51
23 24 24 24 24 24 23 23 24 25 28 26 33 33 35 32 29 36 36 31 28 35 37 31 35 31 37 32 41 44 43 46 52 59 49 44 42 42 44 46 47 50 55
21 22 23 23 24 24 24 25 26 31 35 36 37 34 34 38 38 39 31 30 29 34 35 36 38 42 46 47 54 49 46 48 40 33 35 37 40 42 46 51 53 56 61
13 12 12 14 18 21 23 26 29 25 27 27 30 34 27 26 34 34 33 32 40 46 42 38 40 44 44 41 45 30 26 30 33 36 38 41 45 48 53 56 59 63 66
11 12 12 14 15 18 20 24 23 16 21 20 18 22 24 25 28 23 24 31 35 32 34 30 31 33 48 25 23 27 29 34 37 40 43 46 50 56 60 64 66 68 72
15 7 4 12 17 21 18 18 15 21 17 17 10 11 21 20 23 21 22 26 28 26 32 32 28 23 21 25 29 33 34 38 42 46 49 54 58 61 63 66 68 70 73
9 7 16 19 25 7 10 15 15 17 12 18 17 14 16 18 21 28 22 20 17 15 14 15 19 22 25 30 34 38 40 43 49 53 57 60 64 64 66 69 72 75 77
24 30 24 22 14 12 15 12 13 10 10 15 19 16 16 14 13 7 7 9 12 15 19 23 26 28 32 36 38 42 46 51 54 57 60 62 65 68 70 73 76 78 81
28 22 19 15 16 18 16 14 14 6 2 4 3 6 5 2 2 7 10 15 19 22 24 28 31 35 38 42 46 49 52 55 58 60 62 65 69 72 74 76 79 79 80
32 32 29 26 24 20 17 15 13 10 9 6 3 1 5 9 13 15 18 20 22 25 29 33 37 40 45 48 50 53 55 57 60 63 67 70 72 74 76 78 78 79 82
23 20 18 15 13 10 9 7 5 2 1 3 6 9 11 13 15 18 20 23 27 30 34 38 41 44 47 50 52 54 57 60 63 66 68 71 73 74 75 75 78 82 86
15 13 10 8 7 5 3 2 4 5 6 7 9 12 14 17 19 22 25 29 33 36 40 42 45 47 49 52 55 57 60 64 67 69 70 71 71 70 71 75 79 83 87
11 9 7 5 3 2 2 3 4 6 7 9 13 15 17 19 23 26 29 32 36 39 41 44 46 48 50 54 58 60 63 66 67 68 69 69 68 68 71 75 81 85 88
12 10 9 8 7 5 4 5 7 10 12 15 17 20 22 25 28 30 33 36 39 40 42 45 49 52 54 56 59 62 64 65 67 70 70 67 66 69 74 79 83 87 89
8 6 4 4 5 5 6 8 10 12 14 17 20 23 26 29 31 33 36 38 41 43 46 49 53 56 58 60 62 64 64 68 71 70 66 65 67 71 76 82 86 90 85
8 7 7 7 7 9 10 12 14 17 19 21 23 26 29 32 35 38 40 42 45 48 51 54 57 58 59 59 60 63 68 70 67 65 64 67 69 73 78 84 88 86 73
13 13 14 14 15 16 17 18 19 20 23 25 28 31 34 36 38 40 43 46 48 51 54 55 54 54 55 58 63 65 65 65 62 62 65 67 71 74 81 85 85 74 53
17 17 18 19 20 22 23 24 25 26 29 30 32 35 37 39 42 45 47 49 53 54 49 48 53 57 59 62 62 61 61 60 61 63 65 68 72 78 82 84 75 56 49
22 23 23 24 25 27 29 30 31 32 33 34 37 39 40 43 48 50 50 51 52 52 54 55 59 62 60 59 59 59 59 60 62 65 67 70 75 80 83 76 61 49 54
29 30 31 31 32 33 35 36 36 36 37 39 42 44 46 47 51 52 50 50 52 55 60 62 60 58 57 56 57 57 59 62 64 66 68 71 77 81 77 65 51 52 58
33 34 36 39 38 38 38 38 39 40 41 42 44 47 48 49 52 53 53 52 53 58 63 65 57 56 58 57 57 59 60 63 66 67 70 73 77 77 71 55 51 56 62
38 39 40 40 40 40 41 40 39 41 42 44 46 48 50 51 52 52 52 55 59 61 63 62 56 57 60 60 60 61 62 65 68 69 70 75 78 73 61 49 53 60 65
44 43 44 45 41 39 42 41 40 42 44 45 45 47 50 53 55 54 54 57 60 59 61 63 60 60 62 61 61 63 65 67 68 70 73 75 75 67 52 50 58 63 68
46 49 49 46 44 43 43 42 41 42 43 43 46 48 50 52 54 54 56 62 61 59 61 63 60 60 60 60 62 65 67 68 69 71 75 76 69 58 48 54 61 67 69
46 49 51 45 44 44 42 41 41 42 43 45 47 50 53 55 55 57 60 63 62 60 61 61 60 60 59 61 64 66 67 69 71 74 75 73 64 51 52 59 64 66 64
47 48 47 47 44 42 41 39 41 43 43 45 49 52 55 56 59 65 64 63 61 60 61 59 59 59 60 63 66 67 67 69 71 73 74 65 53 48 56 63 67 65 62
Wind_Direction
169 175 180 186 194 202 211 215 219 222 224 226 226 223 229 229 237 224 241 235 237 233 235 245 251 258 260 257 257 254 260 262 265 265 273 271 274 278 278 281 290 293 294
162 174 180 186 191 194 196 198 202 206 199 202 206 211 222 224 216 207 217 218 223 219 234 235 245 247 249 254 250 251 257 267 272 272 273 282 289 292 292 290 287 287 289
155 163 167 171 173 177 185 192 197 199 196 195 199 209 215 217 213 213 212 223 235 241 235 235 237 247 249 249 246 257 263 269 278 290 292 291 287 287 289 291 291 289 290
135 146 157 172 183 189 197 200 205 204 210 203 204 210 220 231 227 214 222 228 221 234 236 248 238 247 252 260 260 276 291 292 287 282 282 287 290 291 292 292 291 291 291
126 135 150 162 178 190 199 199 162 179 190 188 202 216 204 206 204 203 229 226 246 246 242 245 242 261 265 286 297 288 286 282 283 285 287 286 287 290 292 291 290 291 293
81 69 158 162 161 168 147 152 151 177 176 168 201 221 201 202 223 227 237 221 230 250 252 255 262 275 292 288 284 281 281 280 283 285 286 289 290 291 293 293 293 294 293
97 88 151 166 163 133 117 147 158 177 164 179 202 191 202 205 221 228 233 249 264 279 292 292 282 289 284 279 279 281 284 285 286 289 291 293 295 293 294 295 294 293 294
75 92 119 140 146 139 129 147 179 192 190 207 226 219 215 217 223 258 288 280 282 285 279 274 273 274 277 280 283 287 289 290 291 293 294 295 295 295 294 294 293 292 294
71 79 87 90 95 111 125 143 149 138 152 199 161 93 93 85 240 259 271 272 269 271 276 277 281 284 286 291 293 293 293 294 294 295 295 294 294 294 295 296 296 297 297
69 69 71 72 86 84 83 87 92 92 88 89 79 176 226 236 256 269 275 279 281 280 280 281 282 286 288 290 292 294 294 294 294 295 296 296 297 298 298 299 299 299 299
63 62 63 62 60 65 68 64 53 41 319 275 276 281 285 288 292 289 288 287 286 288 288 288 290 293 295 295 294 295 294 295 296 297 298 299 299 300 301 301 301 302 303
53 56 62 66 68 68 51 339 298 296 298 305 308 306 302 301 298 299 297 296 296 295 295 297 297 297 296 294 293 292 293 294 297 299 300 300 303 304 302 303 304 305 307
31 30 27 16 6 353 300 277 279 295 306 311 311 308 303 299 298 297 296 295 294 295 295 295 295 294 294 295 296 297 299 301 302 302 304 305 304 303 303 305 306 307 309
53 47 39 34 31 18 358 342 327 320 317 312 307 306 306 304 300 297 297 298 299 300 300 299 300 299 300 301 302 304 304 306 306 305 305 303 303 305 306 307 307 308 309
10 12 3 349 333 323 315 306 302 302 301 301 302 302 301 301 300 300 302 305 306 306 305 305 304 304 304 304 303 305 306 305 305 305 303 305 306 307 308 310 310 311 311
342 340 332 320 311 305 302 301 300 299 298 297 298 298 299 301 306 309 309 308 308 308 307 304 303 302 302 302 303 305 305 305 305 307 307 307 307 309 311 312 312 312 310
327 322 320 314 307 304 299 296 293 292 294 296 298 300 304 307 307 307 307 308 307 305 304 305 304 304 305 306 307 306 307 308 309 309 309 308 309 312 313 314 313 311 302
313 308 303 301 302 302 299 294 292 291 292 296 300 302 304 306 307 308 309 308 308 311 313 309 306 305 307 308 308 309 310 309 310 309 309 310 312 314 315 314 313 304 299
308 308 304 300 297 296 296 295 295 296 300 302 301 302 305 307 311 311 309 309 310 309 307 307 309 309 311 309 312 312 310 311 310 310 310 312 314 315 316 314 308 300 302
305 308 308 305 301 300 300 300 301 298 298 298 300 305 306 307 308 308 307 308 307 308 309 308 310 310 310 311 312 313 312 311 311 311 312 313 315 316 316 311 302 302 305
300 299 301 304 303 301 298 297 296 296 296 298 300 303 305 306 305 306 306 308 310 310 312 312 308 309 308 310 312 313 313 312 311 311 312 314 316 318 315 306 303 307 307
299 298 297 298 299 299 298 296 294 293 295 297 299 302 304 308 307 305 308 309 311 312 315 315 310 309 310 310 311 312 312 311 311 312 312 316 318 317 312 304 306 307 308
298 299 297 297 302 298 295 293 291 292 294 298 301 303 303 305 306 306 305 309 312 312 313 313 312 309 309 311 311 312 312 312 313 313 314 317 319 316 310 307 309 311 314
293 296 300 302 303 302 293 292 293 294 296 301 303 304 306 305 305 307 311 313 312 311 312 312 311 310 310 311 311 312 313 313 313 315 317 319 318 314 308 311 314 314 317
298 299 302 302 299 293 291 292 294 298 301 303 306 306 306 306 307 310 312 312 311 310 312 312 310 310 310 311 312 313 313 314 315 316 318 319 319 315 315 315 312 317 318
298 299 298 295 291 289 289 294 298 301 304 308 307 306 305 306 308 310 309 308 309 309 311 310 309 310 310 311 312 313 314 315 316 317 319 317 315 314 314 315 321 319 315